Regional Weather Roundup
Issued by NWS

Home | Current Version | Previous Version | Text Only | Print | Product List | Glossary On
Versions: 1 2 3 4 5 6 7 8 9 10 11 12 13 14 15 16 17 18 19 20 21 22 23 24 25 26 27 28 29 30 31 32 33 34 35 36 37 38 39 40 41 42 43 44 45 46 47 48 49 50
000
ASUS43 KTOP 271508
RWRKS

WEATHER ROUNDUP FOR KANSAS
NATIONAL WEATHER SERVICE GOODLAND KS
1000 AM CDT FRI MAR 27 2015

NOTE:  "FAIR" INDICATES FEW OR NO CLOUDS BELOW 12,000 FEET WITH NO
SIGNIFICANT WEATHER AND/OR OBSTRUCTIONS TO VISIBILITY.

KSZ001>006-013>018-027>032-041>047-271600-
NORTHWEST KANSAS

CITY           SKY/WX    TMP DP  RH WIND       PRES   REMARKS
GOODLAND       CLOUDY    36  31  82 S10       30.20F WCI  28
HAYS           CLOUDY    36  21  55 NE7       30.28S
HILL CITY      CLOUDY    35  28  75 VRB3      30.26F
RUSSELL        CLOUDY    36  27  69 NE8       30.27R
$$

KSZ061>065-074>080-084>089-271600-
SOUTHWEST KANSAS

CITY           SKY/WX    TMP DP  RH WIND       PRES   REMARKS
DODGE CITY     CLOUDY    34  30  85 NE9       30.27R
ELKHART          N/A     43  31  63 NE7         N/A
GARDEN CITY    CLOUDY    36  31  82 E5        30.24F
GREAT BEND     CLOUDY    36  25  64 NE12      30.29R WCI  27
LIBERAL        CLOUDY    39  30  70 E12       30.27R WCI  32
PRATT          CLOUDY    36  28  75 NE12      30.28R WCI  27
$$

KSZ066>073-081>083-090>101-271600-
SOUTHEAST KANSAS

CITY           SKY/WX    TMP DP  RH WIND       PRES   REMARKS
CHANUTE        PTSUNNY   41  31  67 N15       30.27R
COFFEYVILLE    CLOUDY    43  31  62 N14       30.26R
HUTCHINSON     CLOUDY    37  28  70 NE10      30.28S WCI  30
MEDICINE LODGE   N/A     38  31  76 NE12      30.28R WCI  30
NEWTON         CLOUDY    36  27  69 N15       30.29R WCI  26
PARSONS        PTSUNNY   44  30  57 N16G24    30.27R
WICHITA INTL   CLOUDY    38  28  67 NE17      30.27S WCI  28
WICHITA JABRA  CLOUDY    37  28  70 NE16      30.27S WCI  28
WICHITA MCCONL CLOUDY    38  28  67 NE16      30.27S WCI  29
WINFIELD       CLOUDY    40  31  70 N14       30.28R WCI  32
$$

KSZ007>012-019>026-033>040-048>060-102>105-271600-
NORTHEAST KANSAS

CITY           SKY/WX    TMP DP  RH WIND       PRES   REMARKS
CONCORDIA      PTSUNNY   34  29  82 NE7       30.29S
EMPORIA        PTSUNNY   38  28  67 N10       30.28R WCI  31
LAWRENCE       PTSUNNY   36  29  75 N13       30.29R WCI  27
MANHATTAN      MOSUNNY   36  29  75 NE8       30.29F
MARYSVILLE     SUNNY     32  23  69 N8        30.29F
OLATHE IND     MOSUNNY   35  28  75 NW13      30.27R WCI  26
OLATHE EXE     PTSUNNY   36  23  59 N15       30.25R WCI  27
SALINA         MOSUNNY   36  29  75 NE6       30.30S
TOPEKA FORBES  MOSUNNY   36  26  67 N13       30.28R WCI  27
$$


USA.gov is the U.S. government's official web portal to all federal, state and local government web resources and services.